Location: Agadir Mansour Mhndou
(31.2424°N, 8.7730°W)
Time: 06:38:20
(UTC+00:00)

SL-8 R/B - Pass Details

Date: 16 October 2021
Orbit: 656 x 667 km, 48.4° (Epoch: 28 November)

Event Time Altitude Azimuth Distance (km) Brightness Sun altitude
Rises 18:41:52 0° 228° (SW) 2,967 8.0 -9.3°
Reaches altitude 10° 18:44:12 10° 228° (SW) 2,060 7.1 -9.8°
Maximum altitude 18:48:58 89° 318° (NW) 662 3.7 -10.8°
Enters shadow 18:53:45 10° 49° (NE) 2,073 5.8 -11.8°
